User: anonymous   Login
Location: ??????
(33.3472°N, 35.4764°E)
Time: 16:45:52
(UTC+00:00)
Language:

USA 267 - Orbit

View from above orbital plane
View from above orbital plane
View from above satellite
View from above satellite

Ground track
Ground track

The orbit data is extracted from the following two-line orbital elements,

1 41334U 16010A   19281.16751669 0.00000000  00000-0  00000-0 0    08
2 41334 122.9988 181.4535 0002762  58.1828 301.7598 13.41426295    02
Epoch (UTC): 08 October 2019 04:01:13
Eccentricity: 0.0002762
inclination: 122.9988°
perigee height: 1102 km
apogee height: 1106 km
right ascension of ascending node: 181.4535°
argument of perigee: 58.1828°
revolutions per day: 13.41426295
mean anomaly at epoch: 301.7598°
orbit number at epoch: 0

The dashed part of the orbit path shows where the satellite is in the earth's shadow,  

DLR